Weather History for Portland Troutdale, OR

Change the Weather History Date:

Thursday, January 10, 2013

  Actual Average Record
Temperature  
Mean Temperature 37 °F 39 °F  
Max Temperature 40 °F 45 °F 65 °F (1990)
Min Temperature 34 °F 33 °F 2 °F (2004)
Degree Days  
Heating Degree Days 28 26  
Month to date heating degree days 256 264  
Cooling Degree Days 0 0  
Month to date cooling degree days 0 0  
Moisture  
Dew Point 34 °F    
Average Humidity 82    
Maximum Humidity 85    
Minimum Humidity 79    
Precipitation  
Precipitation 0.10 in 0.22 in 1.12 in (2006)
Month to date precipitation 0.85 2.23  
Year to date precipitation 0.85 2.23  
Snow  
Snow 0.00 in - - ()
Month to date snowfall 0.0  
Snow Depth 0.00 in    
Sea Level Pressure  
Sea Level Pressure 30.07 in    
Wind  
Wind Speed 2 mph (WSW)    
Max Wind Speed 9 mph    
Max Gust Speed 10 mph    
Visibility 9 miles    
Events Rain    
T = Trace of Precipitation, MM = Missing Value Source: NWS Daily Summary

Daily Weather History Graph

Daily Weather History Graph

Search for Another Location

Airport:

Trip Planner

Search our weather history database for the weather conditions in past years. The results will help you decide how hot, cold, wet, or windy it might be!

Date:

Astronomy

Jan. 10, 2013 Rise Set
Actual Time 7:48 AM PST 4:46 PM PST
Civil Twilight 7:14 AM PST 5:20 PM PST
Nautical Twilight 6:37 AM PST 5:57 PM PST
Astronomical Twilight 6:02 AM PST 6:33 PM PST
Moon 6:32 AM PST (1/10) 4:01 PM PST (1/10)
Length of Visible Light 10h 05m
Length of Day
8h 58m
Waning Crescent, 1% of the Moon is Illuminated
Jan 10
Waning Crescent
Jan 11
New
Jan 18
First Quarter
Jan 26
Full
Feb 3
Last Quarter

Hourly Weather History & Observations

Time (PST) Temp. Windchill Dew Point Humidity Pressure Visibility Wind Dir Wind Speed Gust Speed Precip Events Conditions
12:17 AM 37.4 °F - 33.8 °F 87% 29.99 in 10.0 mi Calm Calm - 0.00 in   Overcast
12:42 AM 37.4 °F - 35.6 °F 93% 29.99 in 10.0 mi Calm Calm - 0.00 in   Overcast
12:53 AM 37.9 °F 34.4 °F 34.0 °F 86% 29.99 in 10.0 mi South 4.6 mph - 0.00 in   Overcast
2:21 AM 37.4 °F 34.9 °F 33.8 °F 87% 30.01 in 10.0 mi SSW 3.5 mph - N/A   Overcast
2:53 AM 37.0 °F 33.3 °F 34.0 °F 89% 30.01 in 10.0 mi SW 4.6 mph - N/A   Overcast
3:53 AM 37.9 °F 32.1 °F 33.1 °F 83% 30.01 in 10.0 mi WSW 8.1 mph - N/A   Overcast
4:53 AM 37.9 °F - 34.0 °F 86% 30.01 in 10.0 mi Calm Calm - N/A   Overcast
5:42 AM 37.4 °F 32.1 °F 33.8 °F 87% 30.02 in 10.0 mi SSW 6.9 mph - N/A   Overcast
5:53 AM 37.9 °F 34.4 °F 34.0 °F 86% 30.02 in 10.0 mi SSW 4.6 mph - N/A   Overcast
7:53 AM 37.0 °F - 33.1 °F 86% 30.05 in 8.0 mi Calm Calm - 0.04 in Rain Light Rain
8:53 AM 37.0 °F - 33.1 °F 86% 30.07 in 10.0 mi Calm Calm - 0.00 in   Overcast
9:53 AM 37.0 °F - 33.1 °F 86% 30.08 in 10.0 mi Calm Calm - N/A   Overcast
10:53 AM 37.9 °F - 34.0 °F 86% 30.08 in 10.0 mi Calm Calm - N/A   Overcast
11:53 AM 39.0 °F - 35.1 °F 86% 30.07 in 10.0 mi Calm Calm - N/A   Overcast
12:53 PM 39.0 °F - 34.0 °F 82% 30.06 in 10.0 mi Calm Calm - N/A   Overcast
1:27 PM 39.2 °F 35.9 °F 35.6 °F 87% 30.06 in 10.0 mi Variable 4.6 mph - N/A   Overcast
1:34 PM 39.2 °F 35.0 °F 33.8 °F 81% 30.07 in 10.0 mi NW 5.8 mph - N/A   Overcast
1:43 PM 39.2 °F 37.0 °F 33.8 °F 81% 30.07 in 10.0 mi West 3.5 mph - N/A   Overcast
1:53 PM 39.0 °F 36.8 °F 34.0 °F 82% 30.08 in 10.0 mi West 3.5 mph - N/A   Overcast
2:23 PM 39.2 °F 35.9 °F 33.8 °F 81% 30.08 in 10.0 mi WNW 4.6 mph - N/A   Overcast
2:53 PM 39.9 °F 36.7 °F 33.1 °F 77% 30.09 in 10.0 mi WNW 4.6 mph - N/A   Overcast
3:53 PM 39.9 °F 37.8 °F 33.1 °F 77% 30.10 in 10.0 mi West 3.5 mph - N/A   Overcast
4:53 PM 39.0 °F 36.8 °F 33.1 °F 79% 30.10 in 10.0 mi WSW 3.5 mph - N/A   Overcast
5:53 PM 37.9 °F 32.7 °F 34.0 °F 86% 30.09 in 8.0 mi SSW 6.9 mph - 0.00 in Rain Light Rain
6:26 PM 37.4 °F 33.8 °F 33.8 °F 87% 30.09 in 10.0 mi SSW 4.6 mph - 0.00 in   Overcast
6:53 PM 37.9 °F - 34.0 °F 86% 30.10 in 10.0 mi Calm Calm - 0.00 in   Overcast
7:20 PM 37.4 °F - 33.8 °F 87% 30.10 in 10.0 mi Calm Calm - N/A   Mostly Cloudy
7:30 PM 37.4 °F 34.9 °F 33.8 °F 87% 30.10 in 10.0 mi WSW 3.5 mph - N/A   Mostly Cloudy
8:07 PM 37.4 °F - 33.8 °F 87% 30.09 in 10.0 mi Calm Calm - N/A   Overcast
8:21 PM 37.4 °F - 33.8 °F 87% 30.09 in 5.0 mi Calm Calm - 0.00 in Rain Light Rain
8:47 PM 37.4 °F 31.4 °F 33.8 °F 87% 30.10 in 10.0 mi WSW 8.1 mph - 0.01 in Rain Light Rain
8:48 PM 37.0 °F 31.6 °F 33.1 °F 86% 30.10 in 10.0 mi WSW 6.9 mph - 0.01 in Rain Light Rain
9:08 PM 35.6 °F 30.7 °F 33.8 °F 93% 30.09 in 10.0 mi WSW 5.8 mph - 0.00 in Rain Light Rain
9:53 PM 36.0 °F - 32.0 °F 86% 30.10 in 10.0 mi Calm Calm - 0.00 in   Mostly Cloudy
10:08 PM 35.6 °F 30.7 °F 33.8 °F 93% 30.10 in 9.0 mi North 5.8 mph - 0.00 in Rain Light Rain
10:53 PM 35.1 °F - 33.1 °F 92% 30.10 in 5.0 mi Calm Calm - 0.04 in Rain Light Rain
11:30 PM 35.6 °F - 33.8 °F 93% 30.11 in 5.0 mi Calm Calm - 0.00 in   Overcast
11:53 PM 35.1 °F - 33.1 °F 92% 30.11 in 5.0 mi Calm Calm - 0.00 in   Overcast